| time (UTC) | temp F | wind direction | speed knots | gust knots | rain 1hr in | rain 24hr in | rain mn in | humidity % | barometer mb |
| 20260507033605 | 76 | 56 | 2.6 | 7.8 | 0.00 | 0.00 | 0.00 | 35 | 981.2 |
| 20260507033101 | 76 | 48 | 1.7 | 7.8 | 0.00 | 0.00 | 0.00 | 35 | 981.0 |
| 20260507032555 | 76 | 11 | 0.9 | 7.8 | 0.00 | 0.00 | 0.00 | 35 | 981.0 |
| 20260507032056 | 76 | 45 | 1.7 | 5.2 | 0.00 | 0.00 | 0.00 | 33 | 980.9 |
| 20260507031551 | 76 | 44 | 0.9 | 7.8 | 0.00 | 0.00 | 0.00 | 33 | 980.9 |
| 20260507030544 | 77 | 23 | 2.6 | 9.6 | 0.00 | 0.00 | 0.00 | 33 | 980.7 |
| 20260507030043 | 0 | 0.0 | 0.0 | 0.00 | 0.00 | 0.00 | 980.7 | ||
| 20260507025542 | 78 | 6 | 1.7 | 4.3 | 0.00 | 0.00 | 0.00 | 32 | 980.7 |
| 20260507025035 | 78 | 6 | 1.7 | 10.4 | 0.00 | 0.00 | 0.00 | 32 | 980.7 |
| 20260507024537 | 78 | 358 | 1.7 | 10.4 | 0.00 | 0.00 | 0.00 | 32 | 980.7 |
| 20260507023536 | 78 | 357 | 1.7 | 10.4 | 0.00 | 0.00 | 0.00 | 32 | 980.5 |
| 20260507023035 | 78 | 354 | 2.6 | 9.6 | 0.00 | 0.00 | 0.00 | 32 | 980.4 |
| 20260507021536 | 79 | 353 | 2.6 | 12.2 | 0.00 | 0.00 | 0.00 | 32 | 980.2 |
| 20260507020034 | 80 | 351 | 1.7 | 12.2 | 0.00 | 0.00 | 0.00 | 32 | 979.9 |
| 20260507015536 | 80 | 357 | 3.5 | 12.2 | 0.00 | 0.00 | 0.00 | 31 | 979.9 |
| 20260507015036 | 81 | 353 | 1.7 | 8.7 | 0.00 | 0.00 | 0.00 | 30 | 979.9 |
| 20260507014034 | 82 | 6 | 0.9 | 7.8 | 0.00 | 0.00 | 0.00 | 28 | 979.9 |
| 20260507013538 | 82 | 14 | 3.5 | 7.8 | 0.00 | 0.00 | 0.00 | 27 | 979.8 |
| 20260507012536 | 83 | 334 | 6.1 | 9.6 | 0.00 | 0.00 | 0.00 | 25 | 979.7 |
| 20260507012035 | 83 | 4 | 3.5 | 9.6 | 0.00 | 0.00 | 0.00 | 25 | 979.7 |
| 20260507010538 | 84 | 7 | 0.0 | 8.7 | 0.00 | 0.00 | 0.00 | 17 | 979.6 |
| 20260507010036 | 84 | 0 | 0.9 | 3.5 | 0.00 | 0.00 | 0.00 | 17 | 979.6 |
| 20260507005536 | 84 | 0 | 0.9 | 3.5 | 0.00 | 0.00 | 0.00 | 16 | 979.6 |
| 20260507005035 | 84 | 47 | 1.7 | 5.2 | 0.00 | 0.00 | 0.00 | 16 | 979.5 |
| 20260507004536 | 84 | 11 | 0.9 | 5.2 | 0.00 | 0.00 | 0.00 | 16 | 979.5 |
| 20260507004035 | 84 | 334 | 1.7 | 5.2 | 0.00 | 0.00 | 0.00 | 16 | 979.6 |
| 20260507003537 | 84 | 334 | 1.7 | 7.8 | 0.00 | 0.00 | 0.00 | 16 | 979.6 |
| 20260507003035 | 84 | 341 | 2.6 | 7.8 | 0.00 | 0.00 | 0.00 | 16 | 979.5 |
| 20260507002036 | 85 | 351 | 0.9 | 2.6 | 0.00 | 0.00 | 0.00 | 15 | 979.5 |
| 20260507000035 | 85 | 340 | 0.0 | 8.7 | 0.00 | 0.00 | 0.00 | 15 | 979.4 |
| 20260506235535 | 85 | 357 | 2.6 | 8.7 | 0.00 | 0.00 | 0.00 | 15 | 979.4 |
| 20260506235035 | 85 | 13 | 0.0 | 4.3 | 0.00 | 0.00 | 0.00 | 15 | 979.4 |
| 20260506234034 | 85 | 347 | 1.7 | 6.1 | 0.00 | 0.00 | 0.00 | 15 | 979.5 |
| 20260506233035 | 85 | 330 | 0.0 | 5.2 | 0.00 | 0.00 | 0.00 | 14 | 979.5 |
| 20260506232535 | 85 | 330 | 0.0 | 6.1 | 0.00 | 0.00 | 0.00 | 14 | 979.5 |
| 20260506232036 | 85 | 23 | 0.9 | 6.1 | 0.00 | 0.00 | 0.00 | 15 | 979.5 |
| 20260506231536 | 85 | 324 | 2.6 | 4.3 | 0.00 | 0.00 | 0.00 | 15 | 979.5 |
| 20260506231034 | 86 | 351 | 0.9 | 2.6 | 0.00 | 0.00 | 0.00 | 14 | 979.5 |
| 20260506230549 | 86 | 338 | 0.0 | 4.3 | 0.00 | 0.00 | 0.00 | 14 | 979.5 |
| 20260506230035 | 85 | 337 | 0.9 | 9.6 | 0.00 | 0.00 | 0.00 | 14 | 979.7 |
| 20260506225035 | 85 | 357 | 1.7 | 7.8 | 0.00 | 0.00 | 0.00 | 15 | 979.7 |
| 20260506224034 | 85 | 345 | 0.0 | 7.8 | 0.00 | 0.00 | 0.00 | 15 | 979.6 |
| 20260506223043 | 85 | 330 | 0.0 | 5.2 | 0.00 | 0.00 | 0.00 | 15 | 979.7 |
| 20260506222521 | 85 | 321 | 1.7 | 12.2 | 0.00 | 0.00 | 0.00 | 16 | 979.9 |
| 20260506222023 | 85 | 329 | 7.8 | 12.2 | 0.00 | 0.00 | 0.00 | 15 | 979.8 |
| 20260506221008 | 86 | 334 | 2.6 | 5.2 | 0.00 | 0.00 | 0.00 | 15 | 979.9 |
| 20260506220509 | 85 | 323 | 0.9 | 4.3 | 0.00 | 0.00 | 0.00 | 16 | 979.9 |
| 20260506220009 | 85 | 47 | 1.7 | 5.2 | 0.00 | 0.00 | 0.00 | 16 | 979.9 |
| 20260506215509 | 85 | 0 | 1.7 | 5.2 | 0.00 | 0.00 | 0.00 | 16 | 979.9 |
| 20260506215008 | 85 | 326 | 1.7 | 5.2 | 0.00 | 0.00 | 0.00 | 15 | 980.0 |
| 20260506214508 | 85 | 321 | 1.7 | 5.2 | 0.00 | 0.00 | 0.00 | 15 | 980.0 |
| 20260506213515 | 85 | 307 | 1.7 | 4.3 | 0.00 | 0.00 | 0.00 | 16 | 980.1 |
| 20260506213011 | 0 | 353 | 2.6 | 0.0 | 0.00 | 0.00 | 0.00 | 980.2 | |
| 20260506212506 | 0 | 0.0 | 0.0 | 0.00 | 0.00 | 0.00 | 980.3 | ||
| 20260506211756 | 84 | 355 | 2.6 | 0.0 | 0.00 | 0.00 | 0.00 | 15 | 980.5 |
| 20260506211246 | 0 | 0.0 | 0.0 | 0.00 | 0.00 | 0.00 | 980.4 | ||
| 20260506210458 | 84 | 330 | 0.0 | 5.2 | 0.00 | 0.00 | 0.00 | 15 | 980.6 |
| 20260506205955 | 84 | 343 | 0.0 | 2.6 | 0.00 | 0.00 | 0.00 | 15 | 980.6 |
| 20260506205458 | 0 | 0.0 | 0.0 | 0.00 | 0.00 | 0.00 | 980.7 | ||
| 20260506204832 | 83 | 324 | 0.9 | 8.7 | 0.00 | 0.00 | 0.00 | 16 | 980.8 |
| 20260506204333 | 83 | 326 | 3.5 | 8.7 | 0.00 | 0.00 | 0.00 | 17 | 980.8 |
| 20260506203833 | 83 | 0 | 0.0 | 1.7 | 0.00 | 0.00 | 0.00 | 17 | 980.8 |
| 20260506203337 | 84 | 0 | 0.0 | 2.6 | 0.00 | 0.00 | 0.00 | 17 | 980.9 |
| 20260506202832 | 84 | 0 | 0.0 | 2.6 | 0.00 | 0.00 | 0.00 | 17 | 981.0 |
| 20260506201832 | 82 | 334 | 0.0 | 4.3 | 0.00 | 0.00 | 0.00 | 18 | 981.2 |
| 20260506201332 | 82 | 23 | 0.0 | 5.2 | 0.00 | 0.00 | 0.00 | 18 | 981.2 |
| 20260506200836 | 81 | 330 | 0.9 | 5.2 | 0.00 | 0.00 | 0.00 | 19 | 981.2 |
| 20260506200335 | 82 | 306 | 0.0 | 5.2 | 0.00 | 0.00 | 0.00 | 19 | 981.3 |
| 20260506195836 | 82 | 0 | 1.7 | 5.2 | 0.00 | 0.00 | 0.00 | 20 | 981.4 |
| 20260506195335 | 82 | 65 | 0.0 | 2.6 | 0.00 | 0.00 | 0.00 | 20 | 981.4 |
| 20260506194835 | 82 | 65 | 0.0 | 4.3 | 0.00 | 0.00 | 0.00 | 20 | 981.5 |
| 20260506193836 | 81 | 350 | 0.0 | 2.6 | 0.00 | 0.00 | 0.00 | 20 | 981.5 |
| 20260506193336 | 81 | 355 | 0.0 | 0.9 | 0.00 | 0.00 | 0.00 | 20 | 981.6 |
| 20260506192335 | 80 | 355 | 0.0 | 4.3 | 0.00 | 0.00 | 0.00 | 21 | 981.9 |
| 20260506191837 | 81 | 337 | 1.7 | 4.3 | 0.00 | 0.00 | 0.00 | 21 | 981.9 |
| 20260506191336 | 80 | 353 | 0.9 | 2.6 | 0.00 | 0.00 | 0.00 | 21 | 981.9 |
| 20260506190835 | 80 | 341 | 0.0 | 0.9 | 0.00 | 0.00 | 0.00 | 21 | 981.9 |
| 20260506185835 | 79 | 341 | 0.0 | 5.2 | 0.00 | 0.00 | 0.00 | 21 | 982.1 |
| 20260506185334 | 79 | 341 | 1.7 | 5.2 | 0.00 | 0.00 | 0.00 | 21 | 982.1 |
| 20260506184834 | 80 | 336 | 0.0 | 0.9 | 0.00 | 0.00 | 0.00 | 23 | 982.1 |
| 20260506184336 | 80 | 8 | 0.0 | 0.9 | 0.00 | 0.00 | 0.00 | 23 | 982.2 |
| 20260506183335 | 79 | 8 | 0.0 | 0.9 | 0.00 | 0.00 | 0.00 | 24 | 982.3 |
| 20260506182335 | 78 | 13 | 0.0 | 1.7 | 0.00 | 0.00 | 0.00 | 24 | 982.3 |
| 20260506181836 | 78 | 8 | 0.9 | 1.7 | 0.00 | 0.00 | 0.00 | 24 | 982.4 |
| 20260506181335 | 79 | 157 | 0.0 | 0.9 | 0.00 | 0.00 | 0.00 | 24 | 982.4 |
| 20260506180836 | 78 | 240 | 0.0 | 0.9 | 0.00 | 0.00 | 0.00 | 25 | 982.4 |
| 20260506180335 | 78 | 234 | 0.0 | 0.0 | 0.00 | 0.00 | 0.00 | 24 | 982.5 |
| 20260506175834 | 78 | 235 | 0.0 | 0.0 | 0.00 | 0.00 | 0.00 | 25 | 982.6 |
| 20260506175335 | 78 | 0 | 0.0 | 0.0 | 0.00 | 0.00 | 0.00 | 25 | 982.7 |
| 20260506174835 | 77 | 0 | 0.0 | 1.7 | 0.00 | 0.00 | 0.00 | 26 | 982.6 |
| 20260506173835 | 76 | 0 | 0.0 | 1.7 | 0.00 | 0.00 | 0.00 | 27 | 982.6 |
| 20260506173335 | 76 | 3 | 0.0 | 1.7 | 0.00 | 0.00 | 0.00 | 27 | 982.7 |
| 20260506172834 | 76 | 3 | 0.0 | 1.7 | 0.00 | 0.00 | 0.00 | 27 | 982.6 |
| 20260506172335 | 76 | 0 | 0.0 | 0.9 | 0.00 | 0.00 | 0.00 | 27 | 982.6 |
| 20260506171835 | 77 | 0 | 0.0 | 0.9 | 0.00 | 0.00 | 0.00 | 27 | 982.5 |
| 20260506170837 | 76 | 0 | 0.0 | 1.7 | 0.00 | 0.00 | 0.00 | 28 | 982.6 |
| 20260506170336 | 75 | 355 | 0.0 | 0.9 | 0.00 | 0.00 | 0.00 | 29 | 982.5 |
| 20260506165836 | 75 | 355 | 0.0 | 0.9 | 0.00 | 0.00 | 0.00 | 28 | 982.6 |
| 20260506164834 | 74 | 355 | 0.0 | 0.0 | 0.00 | 0.00 | 0.00 | 30 | 982.6 |
| 20260506164334 | 74 | 355 | 0.0 | 0.0 | 0.00 | 0.00 | 0.00 | 30 | 982.6 |
| 20260506163834 | 74 | 355 | 0.0 | 0.9 | 0.00 | 0.00 | 0.00 | 30 | 982.6 |
| 20260506163335 | 74 | 355 | 0.0 | 0.9 | 0.00 | 0.00 | 0.00 | 31 | 982.6 |
| 20260506162835 | 74 | 355 | 0.0 | 0.9 | 0.00 | 0.00 | 0.00 | 31 | 982.5 |
| 20260506162336 | 74 | 355 | 0.0 | 0.0 | 0.00 | 0.00 | 0.00 | 32 | 982.5 |
| 20260506161836 | 73 | 355 | 0.0 | 0.0 | 0.00 | 0.00 | 0.00 | 33 | 982.5 |
| 20260506161334 | 73 | 355 | 0.0 | 0.0 | 0.00 | 0.00 | 0.00 | 33 | 982.4 |
| 20260506160835 | 72 | 355 | 0.0 | 0.0 | 0.00 | 0.00 | 0.00 | 34 | 982.4 |
| 20260506160348 | 72 | 355 | 0.0 | 0.0 | 0.00 | 0.00 | 0.00 | 34 | 982.4 |
| 20260506155834 | 72 | 355 | 0.0 | 0.0 | 0.00 | 0.00 | 0.00 | 36 | 982.4 |
| 20260506155336 | 71 | 355 | 0.0 | 0.0 | 0.00 | 0.00 | 0.00 | 36 | 982.3 |
| 20260506154836 | 71 | 355 | 0.0 | 0.0 | 0.00 | 0.00 | 0.00 | 36 | 982.5 |
| 20260506153834 | 70 | 355 | 0.0 | 0.0 | 0.00 | 0.00 | 0.00 | 37 | 982.5 |
| 20260506153335 | 70 | 355 | 0.0 | 0.0 | 0.00 | 0.00 | 0.00 | 38 | 982.5 |
| 20260506152335 | 69 | 355 | 0.0 | 0.0 | 0.00 | 0.00 | 0.00 | 39 | 982.6 |
| 20260506151835 | 68 | 355 | 0.0 | 0.0 | 0.00 | 0.00 | 0.00 | 41 | 982.6 |
| 20260506151336 | 68 | 355 | 0.0 | 0.9 | 0.00 | 0.00 | 0.00 | 41 | 982.6 |
| 20260506150835 | 68 | 355 | 0.0 | 0.9 | 0.00 | 0.00 | 0.00 | 41 | 982.6 |
| 20260506150335 | 68 | 44 | 0.0 | 0.9 | 0.00 | 0.00 | 0.00 | 41 | 982.6 |
| 20260506145337 | 67 | 44 | 0.0 | 0.0 | 0.00 | 0.00 | 0.00 | 43 | 982.7 |
| 20260506144336 | 67 | 44 | 0.0 | 0.0 | 0.00 | 0.00 | 0.00 | 43 | 982.5 |
| 20260506143835 | 67 | 44 | 0.0 | 0.0 | 0.00 | 0.00 | 0.00 | 43 | 982.5 |
| 20260506143337 | 67 | 44 | 0.0 | 0.0 | 0.00 | 0.00 | 0.00 | 43 | 982.5 |
| 20260506142836 | 67 | 45 | 0.0 | 0.0 | 0.00 | 0.00 | 0.00 | 43 | 982.6 |
| 20260506142335 | 67 | 44 | 0.0 | 0.0 | 0.00 | 0.00 | 0.00 | 44 | 982.6 |
| 20260506141836 | 66 | 44 | 0.0 | 0.0 | 0.00 | 0.00 | 0.00 | 43 | 982.5 |
| 20260506141336 | 65 | 44 | 0.0 | 0.0 | 0.00 | 0.00 | 0.00 | 44 | 982.6 |
| 20260506140336 | 65 | 44 | 0.0 | 0.0 | 0.00 | 0.00 | 0.00 | 44 | 982.5 |
| 20260506135834 | 65 | 45 | 0.0 | 0.0 | 0.00 | 0.00 | 0.00 | 45 | 982.5 |
| 20260506135336 | 65 | 45 | 0.0 | 0.0 | 0.00 | 0.00 | 0.00 | 45 | 982.4 |
| 20260506134835 | 65 | 45 | 0.0 | 0.0 | 0.00 | 0.00 | 0.00 | 45 | 982.4 |
| 20260506134335 | 64 | 44 | 0.0 | 0.0 | 0.00 | 0.00 | 0.00 | 46 | 982.4 |
| 20260506133847 | 64 | 45 | 0.0 | 0.0 | 0.00 | 0.00 | 0.00 | 46 | 982.4 |
| 20260506132841 | 64 | 44 | 0.0 | 0.0 | 0.00 | 0.00 | 0.00 | 46 | 982.4 |
| 20260506132338 | 64 | 44 | 0.0 | 0.0 | 0.00 | 0.00 | 0.00 | 47 | 982.3 |
| 20260506131838 | 63 | 45 | 0.0 | 0.0 | 0.00 | 0.00 | 0.00 | 46 | 982.2 |
| 20260506131336 | 63 | 44 | 0.0 | 0.0 | 0.00 | 0.00 | 0.00 | 47 | 982.2 |
| 20260506130836 | 63 | 44 | 0.0 | 0.0 | 0.00 | 0.00 | 0.00 | 47 | 982.1 |
| 20260506130336 | 63 | 44 | 0.0 | 0.0 | 0.00 | 0.00 | 0.00 | 47 | 982.1 |
| 20260506125336 | 63 | 45 | 0.0 | 0.0 | 0.00 | 0.00 | 0.00 | 47 | 982.0 |
| 20260506124836 | 63 | 89 | 0.0 | 0.0 | 0.00 | 0.00 | 0.00 | 46 | 981.9 |
| 20260506124336 | 64 | 89 | 0.0 | 0.0 | 0.00 | 0.00 | 0.00 | 45 | 981.8 |
| 20260506123835 | 64 | 89 | 0.0 | 0.0 | 0.00 | 0.00 | 0.00 | 42 | 981.8 |
| 20260506123334 | 0 | 0.0 | 0.0 | 0.00 | 0.00 | 0.00 | 981.7 | ||
| 20260506122836 | 64 | 89 | 0.0 | 0.0 | 0.00 | 0.00 | 0.00 | 41 | 981.7 |
| 20260506122335 | 64 | 89 | 0.0 | 0.0 | 0.00 | 0.00 | 0.00 | 41 | 981.6 |
| 20260506121836 | 64 | 89 | 0.0 | 0.0 | 0.00 | 0.00 | 0.00 | 41 | 981.6 |
| 20260506121335 | 64 | 89 | 0.0 | 0.0 | 0.00 | 0.00 | 0.00 | 43 | 981.6 |
| 20260506120835 | 64 | 89 | 0.0 | 0.0 | 0.00 | 0.00 | 0.00 | 43 | 981.6 |
| 20260506120336 | 64 | 89 | 0.0 | 0.0 | 0.00 | 0.00 | 0.00 | 43 | 981.5 |
| 20260506115834 | 64 | 89 | 0.0 | 0.0 | 0.00 | 0.00 | 0.00 | 42 | 981.5 |
| 20260506115336 | 64 | 89 | 0.0 | 0.0 | 0.00 | 0.00 | 0.00 | 41 | 981.5 |
| 20260506114835 | 64 | 89 | 0.0 | 0.0 | 0.00 | 0.00 | 0.00 | 41 | 981.5 |
| 20260506114335 | 64 | 89 | 0.0 | 0.0 | 0.00 | 0.00 | 0.00 | 41 | 981.4 |
| 20260506113836 | 64 | 89 | 0.0 | 0.0 | 0.00 | 0.00 | 0.00 | 41 | 981.4 |
| 20260506113335 | 64 | 89 | 0.0 | 0.0 | 0.00 | 0.00 | 0.00 | 41 | 981.4 |
| 20260506112324 | 64 | 89 | 0.0 | 0.0 | 0.00 | 0.00 | 0.00 | 43 | 981.4 |
| 20260506111817 | 64 | 89 | 0.0 | 0.0 | 0.00 | 0.00 | 0.00 | 44 | 981.4 |
| 20260506111330 | 64 | 89 | 0.0 | 0.0 | 0.00 | 0.00 | 0.00 | 44 | 981.5 |
| 20260506110814 | 64 | 89 | 0.0 | 0.0 | 0.00 | 0.00 | 0.00 | 43 | 981.5 |
| 20260506110309 | 65 | 89 | 0.0 | 0.0 | 0.00 | 0.00 | 0.00 | 42 | 981.5 |
| 20260506105810 | 65 | 89 | 0.0 | 0.0 | 0.00 | 0.00 | 0.00 | 42 | 981.5 |
| 20260506105305 | 65 | 89 | 0.0 | 0.0 | 0.00 | 0.00 | 0.00 | 42 | 981.5 |
| 20260506104809 | 65 | 89 | 0.0 | 0.0 | 0.00 | 0.00 | 0.00 | 43 | 981.4 |
| 20260506104307 | 65 | 89 | 0.0 | 0.0 | 0.00 | 0.00 | 0.00 | 43 | 981.4 |
| 20260506103808 | 65 | 89 | 0.0 | 0.0 | 0.00 | 0.00 | 0.00 | 43 | 981.4 |
| 20260506103308 | 65 | 89 | 0.0 | 0.0 | 0.00 | 0.00 | 0.00 | 42 | 981.3 |
| 20260506102808 | 65 | 89 | 0.0 | 0.0 | 0.00 | 0.00 | 0.00 | 42 | 981.3 |
| 20260506102308 | 65 | 89 | 0.0 | 0.0 | 0.00 | 0.00 | 0.00 | 42 | 981.4 |
| 20260506101807 | 65 | 89 | 0.0 | 0.0 | 0.00 | 0.00 | 0.00 | 41 | 981.3 |
| 20260506101308 | 66 | 89 | 0.0 | 0.0 | 0.00 | 0.00 | 0.00 | 42 | 981.3 |
| 20260506100808 | 66 | 89 | 0.0 | 0.0 | 0.00 | 0.00 | 0.00 | 42 | 981.3 |
| 20260506100308 | 66 | 89 | 0.0 | 0.0 | 0.00 | 0.00 | 0.00 | 43 | 981.3 |
| 20260506095307 | 66 | 89 | 0.0 | 0.0 | 0.00 | 0.00 | 0.00 | 42 | 981.3 |
| 20260506094807 | 66 | 89 | 0.0 | 0.0 | 0.00 | 0.00 | 0.00 | 42 | 981.3 |
| 20260506094308 | 66 | 89 | 0.0 | 0.0 | 0.00 | 0.00 | 0.00 | 41 | 981.2 |
| 20260506093808 | 66 | 89 | 0.0 | 0.0 | 0.00 | 0.00 | 0.00 | 41 | 981.4 |
| 20260506093306 | 66 | 89 | 0.0 | 0.0 | 0.00 | 0.00 | 0.00 | 41 | 981.3 |
| 20260506092807 | 66 | 89 | 0.0 | 0.0 | 0.00 | 0.00 | 0.00 | 41 | 981.3 |
| 20260506091807 | 66 | 89 | 0.0 | 0.0 | 0.00 | 0.00 | 0.00 | 41 | 981.2 |
| 20260506091308 | 67 | 89 | 0.0 | 0.0 | 0.00 | 0.00 | 0.00 | 40 | 981.2 |
| 20260506090806 | 67 | 89 | 0.0 | 0.0 | 0.00 | 0.00 | 0.00 | 40 | 981.3 |
| 20260506090308 | 67 | 89 | 0.0 | 0.0 | 0.00 | 0.00 | 0.00 | 40 | 981.3 |
| 20260506085808 | 67 | 89 | 0.0 | 0.0 | 0.00 | 0.00 | 0.00 | 40 | 981.4 |
| 20260506085307 | 67 | 89 | 0.0 | 0.0 | 0.00 | 0.00 | 0.00 | 40 | 981.4 |
| 20260506084808 | 67 | 89 | 0.0 | 0.0 | 0.00 | 0.00 | 0.00 | 40 | 981.4 |
| 20260506084307 | 67 | 89 | 0.0 | 0.0 | 0.00 | 0.00 | 0.00 | 39 | 981.4 |
| 20260506083808 | 67 | 89 | 0.0 | 0.0 | 0.00 | 0.00 | 0.00 | 39 | 981.5 |
| 20260506083307 | 67 | 89 | 0.0 | 0.0 | 0.00 | 0.00 | 0.00 | 39 | 981.4 |
| 20260506082807 | 67 | 89 | 0.0 | 0.0 | 0.00 | 0.00 | 0.00 | 39 | 981.4 |
| 20260506082307 | 67 | 89 | 0.0 | 0.0 | 0.00 | 0.00 | 0.00 | 38 | 981.5 |
| 20260506081807 | 67 | 89 | 0.0 | 0.0 | 0.00 | 0.00 | 0.00 | 38 | 981.6 |
| 20260506081307 | 68 | 89 | 0.0 | 0.0 | 0.00 | 0.00 | 0.00 | 38 | 981.6 |
| 20260506073319 | 69 | 89 | 0.0 | 0.0 | 0.00 | 0.00 | 0.00 | 39 | 981.8 |
| 20260506072806 | 69 | 89 | 0.0 | 0.0 | 0.00 | 0.00 | 0.00 | 38 | 981.8 |
| 20260506072306 | 69 | 89 | 0.0 | 0.0 | 0.00 | 0.00 | 0.00 | 38 | 981.8 |
| 20260506071806 | 69 | 89 | 0.0 | 0.0 | 0.00 | 0.00 | 0.00 | 38 | 981.8 |
| 20260506070809 | 69 | 89 | 0.0 | 0.0 | 0.00 | 0.00 | 0.00 | 38 | 981.7 |
| 20260506070308 | 69 | 89 | 0.0 | 0.0 | 0.00 | 0.00 | 0.00 | 37 | 981.7 |
| 20260506062307 | 70 | 89 | 0.0 | 0.9 | 0.00 | 0.00 | 0.00 | 35 | 981.6 |
| 20260506061306 | 70 | 90 | 0.0 | 0.9 | 0.00 | 0.00 | 0.00 | 35 | 981.5 |
| 20260506060807 | 70 | 90 | 0.0 | 0.9 | 0.00 | 0.00 | 0.00 | 35 | 981.5 |
| 20260506060308 | 70 | 90 | 0.0 | 0.9 | 0.00 | 0.00 | 0.00 | 35 | 981.6 |
| 20260506051307 | 72 | 92 | 0.9 | 5.2 | 0.00 | 0.00 | 0.00 | 34 | 981.3 |
| 20260506050310 | 72 | 94 | 0.9 | 8.7 | 0.00 | 0.00 | 0.00 | 34 | 981.2 |
| 20260506044808 | 72 | 54 | 0.0 | 2.6 | 0.00 | 0.00 | 0.00 | 34 | 981.1 |
| 20260506044306 | 72 | 47 | 0.0 | 3.5 | 0.00 | 0.00 | 0.00 | 34 | 981.2 |
| 20260506043807 | 73 | 69 | 0.0 | 3.5 | 0.00 | 0.00 | 0.00 | 35 | 981.2 |
| 20260506043307 | 73 | 68 | 1.7 | 3.5 | 0.00 | 0.00 | 0.00 | 34 | 981.1 |
| 20260506042807 | 73 | 32 | 0.0 | 1.7 | 0.00 | 0.00 | 0.00 | 35 | 981.1 |
| 20260506041808 | 73 | 54 | 0.0 | 4.3 | 0.00 | 0.00 | 0.00 | 37 | 980.9 |
| 20260506041319 | 73 | 32 | 0.0 | 3.5 | 0.00 | 0.00 | 0.00 | 38 | 980.8 |
| 20260506040807 | 73 | 35 | 0.9 | 4.3 | 0.00 | 0.00 | 0.00 | 39 | 980.8 |
| 20260506040307 | 73 | 21 | 1.7 | 4.3 | 0.00 | 0.00 | 0.00 | 40 | 980.7 |
| 20260506035807 | 73 | 51 | 0.0 | 1.7 | 0.00 | 0.00 | 0.00 | 40 | 980.7 |
| 20260506035306 | 73 | 16 | 0.0 | 3.5 | 0.00 | 0.00 | 0.00 | 40 | 980.6 |
| 20260506034806 | 73 | 6 | 0.9 | 3.5 | 0.00 | 0.00 | 0.00 | 40 | 980.5 |
| 20260506033807 | 73 | 1 | 0.0 | 4.3 | 0.00 | 0.00 | 0.00 | 40 | 980.6 |